Rbgn^[z[y[W
メイン
   新天体発見情報
     Comet C/2024 A2 (ATLAS)
投稿するにはまず登録を

スレッド表示 | 新しいものから 前のトピック | 次のトピック | 下へ
投稿者 スレッド
佐藤裕久
投稿日時: 2024-2-29 12:40
モデレータ
登録日: 2005-6-12
居住地: 日本
投稿: 2590
オンライン
Comet C/2024 A2 (ATLAS)

1月15日UT、チリ Rio Hurtadoにある小惑星地球衝突最終警報システム Asteroid Terrestrial-
impact Last Alert System (ATLAS)調査プログラムのコースに0.5-m f/2 Schmidt反射望遠鏡で
得たCCD画像から彗星が発見された。
小惑星センターのPCCP webpageに公表後、佐藤英貴氏(東京都文京区,1月16.35日UT、30-秒CCD
露出8枚のスタック, "Deep Sky Chile" 0.51-m f/6.8 アストログラフ, Rio Hurtado, チリ, 
遠隔操作:強く集光した5"の丸いコマが見えたが、尾はない。2".8の円形範囲で測定した光度は
18.1 等であった)らCCD位置観測者によって彗星状と観測された。

彗星機能の報告は次のとおり、

OC   Date        Reporter           Coma    Tail    PA          Exposures
Q62  2024-02-09  T. Prystavski      6"        6"    40            6x50s
Q62  2024-02-10  H. Sato            6"                            6x60s

発見位置は次のとおり、

     2024 UT             R.A. (2000) Decl.       Mag.
     Jan. 15.33554   14 52 55.63   -65 17 49.7   18.0
          15.34072   14 52 55.44   -65 17 59.6   18.0
          15.36106   14 52 54.89   -65 18 36.2   17.8
          15.36879   14 52 54.70   -65 18 49.4   17.8

MPCの楕円軌道要素、位置推算表は次のとおり、

Orbital elements:
    C/2024 A2 (ATLAS)                                                           
Epoch 2024 Mar. 31.0 TT = JDT 2460400.5                                         
T 2024 Apr. 28.87503 TT                                 Rudenko                 
q   1.8818433            (2000.0)            P               Q                  
n   0.00528475     Peri.  295.56145     -0.34100505     +0.39048960             
a  32.6427404      Node    78.16270     +0.78357202     +0.62062064             
e   0.9423503      Incl.  119.10828     -0.51935580     +0.67996169             
P 187                                                                           
From 123 observations 2024 Jan. 15-Feb. 14, mean residual 0".3.                 
                                                                                
Ephemeris:
Date    TT    R. A. (2000) Decl.     Delta      r    Elong.  Phase   m1
2024 01 16    14 52 37.0 -65 37 47   2.5026  2.2549    64.2    23.1  18.0
...
2024 01 31    14 29 10.1 -74 10 01   2.2078  2.1636    74.5    26.0  17.6
...
2024 02 08    13 40 51.3 -79 16 58   2.0635  2.1188    79.5    27.2  17.3
...
2024 02 14    12 04 26.8 -82 30 44   1.9661  2.0872    82.8    28.0  17.2
2024 02 15    11 39 13.2 -82 51 11   1.9510  2.0821    83.3    28.1  17.1
2024 02 16    11 11 19.0 -83 05 47   1.9363  2.0770    83.8    28.2  17.1
...
2024 02 22    08 17 43.9 -81 57 21   1.8563  2.0479    86.4    28.8  17.0
...
2024 03 01    06 27 10.8 -75 32 39   1.7759  2.0122    88.6    29.5  16.8
...
2024 03 16    05 38 41.8 -59 22 59   1.7216  1.9557    87.8    30.5  16.6

(MPEC 2024-C180、CBET 5349)

スレッド表示 | 新しいものから 前のトピック | 次のトピック | トップ

投稿するにはまず登録を
 
© 1999 Tsutomu Seki.